Regional Weather Roundup
Issued by NWS

Home | Current Version | Previous Version | Graphics & Text | Print | Product List | Glossary On
Versions: 1 2 3 4 5 6 7 8 9 10 11 12 13 14 15 16 17 18 19 20 21 22 23 24 25 26 27 28 29 30 31 32 33 34 35 36 37 38 39 40 41 42 43 44 45 46 47 48 49 50
000
ASUS43 KOAX 110510
RWRNE

WEATHER ROUNDUP FOR NEBRASKA
NATIONAL WEATHER SERVICE OMAHA NE
1100 PM CST WED FEB 10 2016

NOTES: SATELLITE DATA IS BEING USED TO AUGMENT CLOUD COVER ABOVE
       12000 FEET.
       "FAIR" INDICATES FEW OR NO CLOUDS BELOW 12,000 FEET WITH NO
       SIGNIFICANT WEATHER AND/OR OBSTRUCTIONS TO VISIBILITY.

  * THESE STATIONS DO NOT REPORT WEATHER SUCH AS RAIN...SNOW OR FOG.

NEZ001>004-019>022-054>056-110600-
NEBRASKA PANHANDLE

CITY           SKY/WX    TMP DP  RH WIND       PRES   REMARKS
SCOTTSBLUFF    CLEAR     33  26  75 NW8       30.14R WCI  26
ALLIANCE       CLOUDY    29  26  89 W12       30.11R WCI  19
CHADRON        CLOUDY    27  23  85 SW7       30.12R WCI  19
KIMBALL        CLOUDY    38  23  56 NW15      30.15S WCI  29
SIDNEY         CLOUDY    35  26  69 NW14      30.14R WCI  26
$$

NEZ057>060-069>072-079>082-110600-
SOUTHWEST NEBRASKA

CITY           SKY/WX    TMP DP  RH WIND       PRES   REMARKS
NORTH PLATTE   CLEAR     35  28  75 NE12      30.11R WCI  27
IMPERIAL       CLEAR     37  28  70 W7        30.11R WCI  32
LEXINGTON      CLOUDY    34  28  79 N6        30.11R WCI  29
MCCOOK         CLOUDY    35  29  78 N7        30.10R WCI  29
OGALLALA       CLEAR     37  28  69 CALM      30.11R
$$

NEZ005>010-023>029-035>040-094-110600-
NORTH CENTRAL NEBRASKA

CITY           SKY/WX    TMP DP  RH WIND       PRES   REMARKS
VALENTINE      CLOUDY    30  27  88 N9        30.15R WCI  22
AINSWORTH      CLOUDY    31  28  87 N10       30.14R WCI  22
BROKEN BOW     CLEAR     33  28  81 NE7       30.11R WCI  27
O`NEILL        CLOUDY    26  24  91 N6        30.15R WCI  19
ORD            CLOUDY    29  25  85 N6        30.13R WCI  23
THEDFORD       CLOUDY    31  29  91 N3        30.14R
$$

NEZ041-046>049-061>064-073>077-083>087-110600-
SOUTH CENTRAL NEBRASKA

CITY           SKY/WX    TMP DP  RH WIND       PRES   REMARKS
GRAND ISLAND   CLEAR     26  23  88 CALM      30.13R
AURORA         CLEAR     27  24  90 NE3       30.11R
HASTINGS       CLOUDY    29  25  85 NE7       30.10R WCI  22
HEBRON         PTCLDY    31  27  83 N8        30.10R WCI  24
HOLDREGE       CLEAR     33  28  85 NE10      30.09R WCI  24
KEARNEY *      CLOUDY    30  28  93 NE12      30.10R WCI  21
YORK           PTCLDY    25  23  93 NE9       30.12R WCI  15
$$

NEZ011>018-030>034-042>045-110600-
NORTHEAST NEBRASKA

CITY           SKY/WX    TMP DP  RH WIND       PRES   REMARKS
NORFOLK        CLOUDY    22  17  81 NE8       30.16R WCI  12
ALBION         CLOUDY    26  22  86 N9        30.14R WCI  16
BLAIR          CLOUDY    20  17  86 NE8       30.15R WCI  10
COLUMBUS *     CLOUDY    23  12  63 NE10      30.15R WCI  12
FREMONT        CLOUDY    20  16  83 N6        30.17R WCI  12
TEKAMAH        CLOUDY    17  13  84 N7        30.20R WCI   8
WAYNE          CLOUDY    19  15  85 NE7       30.20R WCI   9
$$

NEZ050>053-065>068-078-088>093-110600-
SOUTHEAST NEBRASKA

CITY           SKY/WX    TMP DP  RH WIND       PRES   REMARKS
LINCOLN        CLOUDY    23  20  88 N8        30.16R WCI  14
OMAHA EPPLEY   CLOUDY    22  16  78 N7        30.17R WCI  13
BEATRICE       CLOUDY    29  26  88 NE12      30.10R WCI  19
FALLS CITY     CLEAR     28  22  78 NE6       30.10R WCI  22
NEBRASKA CITY  MOCLDY    26  23  87 NE12      30.12R WCI  16
PLATTSMOUTH    CLOUDY    23  19  86 NE8       30.14R WCI  14
$$

NEZ044-045-051>053-067-110600-
OMAHA AREA

CITY           SKY/WX    TMP DP  RH WIND       PRES   REMARKS
OMAHA EPPLEY   CLOUDY    22  16  78 N7        30.17R WCI  13
BLAIR          CLOUDY    20  17  86 NE8       30.15R WCI  10
FREMONT        CLOUDY    20  16  83 N6        30.17R WCI  12
MILLARD        CLOUDY    23  18  79 CALM      30.17R
OFFUTT AFB     PTCLDY    22  18  85 NE10      30.15R WCI  11
PLATTSMOUTH    CLOUDY    23  19  86 NE8       30.14R WCI  14
WAHOO          FAIR      21  18  88 N8        30.16R WCI  11
$$



USA.gov is the U.S. government's official web portal to all federal, state and local government web resources and services.